Location: Pasarilla del Rebollar
(40.6790°N, 5.0062°W)
Time: 12:10:01
(UTC+00:00)

CZ-2C R/B - Pass Details

Date: 22 April 2026
Orbit: 662 x 774 km, 98.5° (Epoch: 15 May)

Event Time Altitude Azimuth Distance (km) Brightness Sun altitude
Rises 04:30:48 0° 15° (NNE) 3,153 6.3 -11.4°
Reaches altitude 10° 04:33:07 10° 17° (NNE) 2,210 5.5 -11.0°
Maximum altitude 04:37:57 75° 102° (ESE) 730 2.5 -10.2°
Drops below altitude 10° 04:42:36 10° 188° (S) 2,125 4.5 -9.4°
Sets 04:44:48 0° 190° (S) 3,023 5.2 -9.1°
